Regional Weather Roundup
Issued by NWS Sioux Falls, SD

Home | Current Version | Previous Version | Text Only | Print | Product List | Glossary Off
Versions: 1 2 3 4 5 6 7 8 9 10 11 12 13 14 15 16 17 18 19 20 21 22 23 24 25 26 27 28 29 30 31 32 33 34 35 36 37 38 39 40 41 42 43 44 45 46 47 48 49 50

000
ASUS43 KFSD 160802
RWRFSD

WEATHER ROUNDUP FOR SE SOUTH DAKOTA/SW MINNESOTA/NW IOWA
NATIONAL WEATHER SERVICE SIOUX FALLS SD
300 AM CDT TUE SEP 16 2014

NOTE: "FAIR" INDICATES FEW OR NO CLOUDS BELOW 12,000 FEET WITH NO
SIGNIFICANT WEATHER AND OR OBSTRUCTIONS TO VISIBILITY.


SDZ038>040-050-052>070-160900-
SOUTHEAST SOUTH DAKOTA

CITY           SKY/WX    TMP DP  RH WIND       PRES   REMARKS
CHAMBERLAIN    CLEAR     44  39  83 SE9       30.17S
HURON          CLEAR     42  36  79 S6        30.19S
MADISON        FAIR      39  39 100 S5        30.22S
MITCHELL       CLEAR     43  39  86 S7        30.21S
SIOUX FALLS    CLEAR     42  41  96 CALM      30.23S
WINNER         FAIR      53  39  59 S20G30    30.14F
YANKTON        CLEAR     45  41  87 S3        30.24S
$$

MNZ071-072-080-081-089-090-097-098-160900-
SOUTHWEST MINNESOTA

CITY           SKY/WX    TMP DP  RH WIND       PRES   REMARKS
FAIRMONT       CLEAR     43  36  75 SW3       30.24S
JACKSON        CLEAR     41  37  87 SW3       30.25S
LUVERNE        CLEAR     39  37  93 CALM      30.24F
MARSHALL       CLEAR     43  36  75 SW10      30.21S
MONTEVIDEO     CLEAR     43  36  75 W6        30.21F
PIPESTONE      CLEAR     45 N/A N/A S3          N/A
REDWOOD FALLS  CLEAR     43  37  79 SW7       30.22S
TRACY          CLEAR     45  42  89 CALM      30.23S
WINDOM         CLEAR     39  37  93 CALM      30.24S
WORTHINGTON    CLEAR     41  37  87 SW5       30.25S
$$

IAZ001>003-012>014-020>022-031-032-NEZ013-014-SDZ071-160900-
NORTHWEST IOWA

CITY           SKY/WX    TMP DP  RH WIND       PRES   REMARKS
CHEROKEE       CLEAR     37  37 100 CALM      30.26S FOG
DENISON        CLEAR     39  39 100 CALM      30.25F
ESTHERVILLE    CLEAR     39  37  92 SW7       30.24F
LE MARS          N/A     39  39 100 CALM      30.26S
ORANGE CITY    CLEAR     45  41  87 S3        30.25S
SHELDON        CLEAR     37  37 100 E3        30.24S
SIOUX CITY     CLEAR     41  39  93 CALM      30.26F
SPENCER        CLEAR     38  36  92 CALM      30.25F
STORM LAKE     CLEAR     45  45 100 SW6       30.26S
$$

ABBREVIATIONS USED IN REMARKS
   TC - TEMPERATURE IN CELSIUS
  WCI - WIND CHILL INDEX
   HX - HEAT INDEX
  VSB - VISIBILITY



USA.gov is the U.S. government's official web portal to all federal, state and local government web resources and services.